contact:dominique.lefevre@mio.osupytheas.fr, maurice.libes@osupytheas.fr, didier.mallarino@osupytheas.fr
Project:EMSO http://www.emso-fr.org/EMSO-France
Depth: 2436.0 m
Title:EMSO Ligure Ouest : Data MII capteur CSTAR
DateTime,Latitude,Longitude,Instrument_Serial,Reference_Counts,Signal_Counts,Corrected_Signal_raw_counts,Calculated_Beam_c_inverse_meters,Internal_thermistor_counts
DateTime,Latitude,Longitude,Instrument_Serial,Reference_Counts,Signal_Counts,Corrected_Signal_raw_counts,Calculated_Beam_c_inverse_meters,Internal_thermistor_counts
2021-07-05T00:00:16,42.805,6.029,CST-1368DR,5419,7538,14927,0.180,551
2021-07-05T00:03:17,42.805,6.029,CST-1368DR,5419,7539,14928,0.180,551
2021-07-05T00:06:19,42.805,6.029,CST-1368DR,5419,7537,14924,0.181,551
2021-07-05T00:09:21,42.805,6.029,CST-1368DR,5419,7538,14927,0.180,551
2021-07-05T00:12:22,42.805,6.029,CST-1368DR,5419,7538,14926,0.181,551
2021-07-05T00:15:24,42.805,6.029,CST-1368DR,5419,7538,14926,0.181,551
2021-07-05T00:18:25,42.805,6.029,CST-1368DR,5419,7539,14927,0.180,551
2021-07-05T00:21:27,42.805,6.029,CST-1368DR,5419,7538,14926,0.181,551
2021-07-05T00:24:28,42.805,6.029,CST-1368DR,5419,7538,14926,0.181,551
2021-07-05T00:27:30,42.805,6.029,CST-1368DR,5419,7539,14927,0.180,551
2021-07-05T00:30:32,42.805,6.029,CST-1368DR,5419,7540,14929,0.180,551
2021-07-05T00:33:33,42.805,6.029,CST-1368DR,5419,7537,14925,0.181,551
2021-07-05T00:36:35,42.805,6.029,CST-1368DR,5419,7538,14925,0.181,551
2021-07-05T00:39:36,42.805,6.029,CST-1368DR,5419,7539,14928,0.180,551
2021-07-05T00:42:38,42.805,6.029,CST-1368DR,5419,7539,14927,0.180,551
2021-07-05T00:45:40,42.805,6.029,CST-1368DR,5419,7537,14925,0.181,551
2021-07-05T00:48:41,42.805,6.029,CST-1368DR,5419,7538,14926,0.181,551
2021-07-05T00:51:43,42.805,6.029,CST-1368DR,5419,7538,14927,0.180,551
2021-07-05T00:54:44,42.805,6.029,CST-1368DR,5419,7538,14927,0.180,551
2021-07-05T00:57:46,42.805,6.029,CST-1368DR,5419,7538,14927,0.180,551
2021-07-05T01:00:47,42.805,6.029,CST-1368DR,5419,7538,14927,0.180,551
2021-07-05T01:03:49,42.805,6.029,CST-1368DR,5419,7539,14928,0.180,551
2021-07-05T01:06:51,42.805,6.029,CST-1368DR,5419,7539,14928,0.180,551
2021-07-05T01:09:52,42.805,6.029,CST-1368DR,5419,7538,14926,0.181,551
2021-07-05T01:12:54,42.805,6.029,CST-1368DR,5419,7537,14924,0.181,551
2021-07-05T01:15:55,42.805,6.029,CST-1368DR,5419,7538,14927,0.180,551
2021-07-05T01:18:57,42.805,6.029,CST-1368DR,5419,7539,14927,0.180,551
2021-07-05T01:21:59,42.805,6.029,CST-1368DR,5419,7538,14925,0.181,551
2021-07-05T01:25:00,42.805,6.029,CST-1368DR,5419,7538,14926,0.181,551
2021-07-05T01:28:02,42.805,6.029,CST-1368DR,5419,7538,14925,0.181,551
2021-07-05T01:31:03,42.805,6.029,CST-1368DR,5419,7537,14923,0.182,551
2021-07-05T01:34:05,42.805,6.029,CST-1368DR,5419,7538,14926,0.181,551
2021-07-05T01:37:06,42.805,6.029,CST-1368DR,5419,7538,14925,0.181,551
2021-07-05T01:40:08,42.805,6.029,CST-1368DR,5419,7537,14924,0.181,551
2021-07-05T01:43:10,42.805,6.029,CST-1368DR,5419,7539,14927,0.180,551
2021-07-05T01:46:11,42.805,6.029,CST-1368DR,5419,7540,14930,0.180,551
2021-07-05T01:49:13,42.805,6.029,CST-1368DR,5419,7538,14926,0.181,551
2021-07-05T01:52:14,42.805,6.029,CST-1368DR,5419,7540,14929,0.180,551
2021-07-05T01:55:16,42.805,6.029,CST-1368DR,5419,7539,14927,0.180,551
2021-07-05T01:58:17,42.805,6.029,CST-1368DR,5419,7539,14928,0.180,551
2021-07-05T02:01:19,42.805,6.029,CST-1368DR,5419,7540,14929,0.180,551
2021-07-05T02:04:21,42.805,6.029,CST-1368DR,5419,7538,14927,0.180,551
2021-07-05T02:07:22,42.805,6.029,CST-1368DR,5419,7539,14927,0.180,551
2021-07-05T02:10:24,42.805,6.029,CST-1368DR,5419,7538,14925,0.181,551
2021-07-05T02:13:25,42.805,6.029,CST-1368DR,5419,7538,14926,0.181,551
2021-07-05T02:16:27,42.805,6.029,CST-1368DR,5419,7530,14909,0.185,551
2021-07-05T02:19:29,42.805,6.029,CST-1368DR,5419,7539,14928,0.180,551
2021-07-05T02:22:30,42.805,6.029,CST-1368DR,5419,7538,14926,0.181,551
2021-07-05T02:25:32,42.805,6.029,CST-1368DR,5419,7538,14926,0.181,551
2021-07-05T02:28:33,42.805,6.029,CST-1368DR,5419,7539,14927,0.180,551
2021-07-05T02:31:35,42.805,6.029,CST-1368DR,5419,7540,14930,0.180,551
2021-07-05T02:34:36,42.805,6.029,CST-1368DR,5419,7539,14929,0.180,551
2021-07-05T02:37:38,42.805,6.029,CST-1368DR,5419,7537,14925,0.181,551
2021-07-05T02:40:40,42.805,6.029,CST-1368DR,5419,7539,14927,0.180,551
2021-07-05T02:43:41,42.805,6.029,CST-1368DR,5419,7538,14926,0.181,551
2021-07-05T02:46:43,42.805,6.029,CST-1368DR,5419,7540,14929,0.180,551
2021-07-05T02:49:44,42.805,6.029,CST-1368DR,5419,7537,14925,0.181,551
2021-07-05T02:52:46,42.805,6.029,CST-1368DR,5419,7539,14927,0.180,551
2021-07-05T02:55:47,42.805,6.029,CST-1368DR,5419,7538,14926,0.181,551
2021-07-05T02:58:49,42.805,6.029,CST-1368DR,5419,7539,14929,0.180,551
2021-07-05T03:01:51,42.805,6.029,CST-1368DR,5419,7540,14930,0.180,551
2021-07-05T03:04:52,42.805,6.029,CST-1368DR,5419,7540,14930,0.180,551
2021-07-05T03:07:54,42.805,6.029,CST-1368DR,5419,7540,14930,0.180,551
2021-07-05T03:10:55,42.805,6.029,CST-1368DR,5419,7540,14930,0.180,551
2021-07-05T03:13:57,42.805,6.029,CST-1368DR,5419,7540,14930,0.180,551
2021-07-05T03:16:59,42.805,6.029,CST-1368DR,5419,7539,14929,0.180,551
2021-07-05T03:20:00,42.805,6.029,CST-1368DR,5419,7539,14928,0.180,551
2021-07-05T03:23:02,42.805,6.029,CST-1368DR,5419,7540,14930,0.180,551
2021-07-05T03:26:03,42.805,6.029,CST-1368DR,5419,7539,14928,0.180,551
2021-07-05T03:29:05,42.805,6.029,CST-1368DR,5419,7540,14930,0.180,551
2021-07-05T03:32:06,42.805,6.029,CST-1368DR,5419,7540,14930,0.180,551
2021-07-05T03:35:08,42.805,6.029,CST-1368DR,5419,7540,14930,0.180,551
2021-07-05T03:38:10,42.805,6.029,CST-1368DR,5419,7540,14930,0.180,551
2021-07-05T03:41:11,42.805,6.029,CST-1368DR,5419,7540,14930,0.180,551
2021-07-05T03:44:13,42.805,6.029,CST-1368DR,5419,7540,14929,0.180,551
2021-07-05T03:47:14,42.805,6.029,CST-1368DR,5419,7539,14927,0.180,551
2021-07-05T03:50:16,42.805,6.029,CST-1368DR,5419,7540,14930,0.180,551
2021-07-05T03:53:18,42.805,6.029,CST-1368DR,5419,7539,14929,0.180,551
2021-07-05T03:56:19,42.805,6.029,CST-1368DR,5419,7539,14927,0.180,551
2021-07-05T03:59:21,42.805,6.029,CST-1368DR,5419,7540,14929,0.180,550
2021-07-05T04:02:22,42.805,6.029,CST-1368DR,5419,7538,14926,0.181,551
2021-07-05T04:05:24,42.805,6.029,CST-1368DR,5419,7538,14926,0.181,551
2021-07-05T04:08:25,42.805,6.029,CST-1368DR,5419,7538,14927,0.180,551
2021-07-05T04:11:27,42.805,6.029,CST-1368DR,5419,7540,14930,0.180,551
2021-07-05T04:14:29,42.805,6.029,CST-1368DR,5419,7540,14931,0.179,551
2021-07-05T04:17:30,42.805,6.029,CST-1368DR,5419,7538,14925,0.181,551
2021-07-05T04:20:32,42.805,6.029,CST-1368DR,5419,7537,14924,0.181,551
2021-07-05T04:23:33,42.805,6.029,CST-1368DR,5419,7538,14926,0.181,551
2021-07-05T04:26:35,42.805,6.029,CST-1368DR,5419,7538,14926,0.181,551
2021-07-05T04:29:36,42.805,6.029,CST-1368DR,5419,7539,14928,0.180,551
2021-07-05T04:32:38,42.805,6.029,CST-1368DR,5419,7539,14927,0.180,551
2021-07-05T04:35:40,42.805,6.029,CST-1368DR,5419,7539,14928,0.180,551
2021-07-05T04:38:41,42.805,6.029,CST-1368DR,5419,7539,14929,0.180,551
2021-07-05T04:41:43,42.805,6.029,CST-1368DR,5419,7540,14929,0.180,551
2021-07-05T04:44:44,42.805,6.029,CST-1368DR,5419,7540,14930,0.180,551
2021-07-05T04:47:46,42.805,6.029,CST-1368DR,5419,7540,14930,0.180,551
2021-07-05T04:50:48,42.805,6.029,CST-1368DR,5419,7539,14928,0.180,551
2021-07-05T04:53:49,42.805,6.029,CST-1368DR,5419,7539,14929,0.180,551
2021-07-05T04:56:51,42.805,6.029,CST-1368DR,5419,7539,14928,0.180,551
2021-07-05T04:59:52,42.805,6.029,CST-1368DR,5419,7539,14929,0.180,551
2021-07-05T05:02:54,42.805,6.029,CST-1368DR,5419,7540,14930,0.180,551
2021-07-05T05:05:55,42.805,6.029,CST-1368DR,5419,7540,14929,0.180,551
2021-07-05T05:08:57,42.805,6.029,CST-1368DR,5419,7537,14924,0.181,551
2021-07-05T05:11:59,42.805,6.029,CST-1368DR,5419,7539,14927,0.180,551
2021-07-05T05:15:00,42.805,6.029,CST-1368DR,5419,7540,14929,0.180,551
2021-07-05T05:18:02,42.805,6.029,CST-1368DR,5419,7540,14930,0.180,551
2021-07-05T05:21:03,42.805,6.029,CST-1368DR,5419,7539,14929,0.180,551
2021-07-05T05:24:05,42.805,6.029,CST-1368DR,5419,7540,14930,0.180,551
2021-07-05T05:27:07,42.805,6.029,CST-1368DR,5419,7540,14930,0.180,551
2021-07-05T05:30:08,42.805,6.029,CST-1368DR,5419,7541,14931,0.179,551
2021-07-05T05:33:10,42.805,6.029,CST-1368DR,5419,7539,14928,0.180,551
2021-07-05T05:36:11,42.805,6.029,CST-1368DR,5419,7540,14929,0.180,551
2021-07-05T05:39:13,42.805,6.029,CST-1368DR,5419,7541,14931,0.179,551
2021-07-05T05:42:14,42.805,6.029,CST-1368DR,5419,7540,14929,0.180,551
2021-07-05T05:45:16,42.805,6.029,CST-1368DR,5419,7540,14930,0.180,551
2021-07-05T05:48:18,42.805,6.029,CST-1368DR,5419,7538,14927,0.180,551
2021-07-05T05:51:19,42.805,6.029,CST-1368DR,5419,7540,14930,0.180,551
2021-07-05T05:54:21,42.805,6.029,CST-1368DR,5419,7540,14931,0.179,551
2021-07-05T05:57:22,42.805,6.029,CST-1368DR,5419,7540,14930,0.180,551
2021-07-05T06:00:24,42.805,6.029,CST-1368DR,5419,7540,14931,0.179,551
2021-07-05T06:03:26,42.805,6.029,CST-1368DR,5419,7540,14930,0.180,551
2021-07-05T06:06:27,42.805,6.029,CST-1368DR,5419,7540,14930,0.180,551
2021-07-05T06:09:29,42.805,6.029,CST-1368DR,5418,7540,14933,0.179,551
2021-07-05T06:12:30,42.805,6.029,CST-1368DR,5419,7540,14930,0.180,551
2021-07-05T06:15:32,42.805,6.029,CST-1368DR,5419,7540,14931,0.179,551
2021-07-05T06:18:33,42.805,6.029,CST-1368DR,5419,7540,14930,0.180,551
2021-07-05T06:21:35,42.805,6.029,CST-1368DR,5419,7540,14931,0.179,551
2021-07-05T06:24:37,42.805,6.029,CST-1368DR,5419,7539,14928,0.180,551
2021-07-05T06:27:38,42.805,6.029,CST-1368DR,5418,7539,14931,0.179,551
2021-07-05T06:30:40,42.805,6.029,CST-1368DR,5419,7540,14930,0.180,551
2021-07-05T06:33:41,42.805,6.029,CST-1368DR,5419,7540,14931,0.179,551
2021-07-05T06:36:43,42.805,6.029,CST-1368DR,5419,7539,14929,0.180,551
2021-07-05T06:39:44,42.805,6.029,CST-1368DR,5419,7541,14932,0.179,551
2021-07-05T06:42:46,42.805,6.029,CST-1368DR,5419,7541,14931,0.179,551
2021-07-05T06:45:48,42.805,6.029,CST-1368DR,5419,7540,14929,0.180,551
2021-07-05T06:48:49,42.805,6.029,CST-1368DR,5419,7539,14928,0.180,551
2021-07-05T06:51:51,42.805,6.029,CST-1368DR,5419,7537,14924,0.181,551
2021-07-05T06:54:52,42.805,6.029,CST-1368DR,5419,7534,14919,0.183,551
2021-07-05T06:57:54,42.805,6.029,CST-1368DR,5418,7541,14934,0.179,551
2021-07-05T07:00:56,42.805,6.029,CST-1368DR,5419,7538,14927,0.180,551
2021-07-05T07:03:57,42.805,6.029,CST-1368DR,5419,7540,14931,0.179,551
2021-07-05T07:06:59,42.805,6.029,CST-1368DR,5419,7540,14931,0.179,551
2021-07-05T07:10:00,42.805,6.029,CST-1368DR,5418,7539,14931,0.179,551
2021-07-05T07:13:02,42.805,6.029,CST-1368DR,5418,7540,14933,0.179,551
2021-07-05T07:16:03,42.805,6.029,CST-1368DR,5418,7540,14933,0.179,551
2021-07-05T07:19:05,42.805,6.029,CST-1368DR,5419,7540,14930,0.180,551
2021-07-05T07:22:07,42.805,6.029,CST-1368DR,5419,7540,14930,0.180,551
2021-07-05T07:25:08,42.805,6.029,CST-1368DR,5418,7540,14932,0.179,551
2021-07-05T07:28:10,42.805,6.029,CST-1368DR,5418,7538,14929,0.180,551
2021-07-05T07:31:11,42.805,6.029,CST-1368DR,5418,7540,14932,0.179,551
2021-07-05T07:34:13,42.805,6.029,CST-1368DR,5418,7540,14932,0.179,551
2021-07-05T07:37:15,42.805,6.029,CST-1368DR,5418,7539,14930,0.180,551
2021-07-05T07:40:16,42.805,6.029,CST-1368DR,5418,7540,14932,0.179,551
2021-07-05T07:43:18,42.805,6.029,CST-1368DR,5418,7539,14930,0.180,551
2021-07-05T07:46:19,42.805,6.029,CST-1368DR,5419,7540,14930,0.180,551
2021-07-05T07:49:21,42.805,6.029,CST-1368DR,5418,7540,14933,0.179,551
2021-07-05T07:52:22,42.805,6.029,CST-1368DR,5419,7540,14930,0.180,551
2021-07-05T07:55:24,42.805,6.029,CST-1368DR,5418,7540,14932,0.179,551
2021-07-05T07:58:26,42.805,6.029,CST-1368DR,5418,7539,14931,0.179,551
2021-07-05T08:01:27,42.805,6.029,CST-1368DR,5418,7540,14933,0.179,551
2021-07-05T08:04:29,42.805,6.029,CST-1368DR,5418,7539,14930,0.180,551
2021-07-05T08:07:30,42.805,6.029,CST-1368DR,5418,7539,14930,0.180,551
2021-07-05T08:10:32,42.805,6.029,CST-1368DR,5418,7539,14930,0.180,551
2021-07-05T08:13:33,42.805,6.029,CST-1368DR,5418,7537,14927,0.180,550
2021-07-05T08:16:35,42.805,6.029,CST-1368DR,5418,7537,14927,0.180,551
2021-07-05T08:19:37,42.805,6.029,CST-1368DR,5418,7538,14929,0.180,551
2021-07-05T08:22:38,42.805,6.029,CST-1368DR,5418,7538,14929,0.180,551
2021-07-05T08:25:40,42.805,6.029,CST-1368DR,5418,7538,14929,0.180,551
2021-07-05T08:28:41,42.805,6.029,CST-1368DR,5418,7538,14929,0.180,551
2021-07-05T08:31:43,42.805,6.029,CST-1368DR,5418,7539,14930,0.180,551
2021-07-05T08:34:45,42.805,6.029,CST-1368DR,5418,7539,14930,0.180,551
2021-07-05T08:37:46,42.805,6.029,CST-1368DR,5418,7539,14930,0.180,551
2021-07-05T08:40:48,42.805,6.029,CST-1368DR,5418,7538,14928,0.180,551
2021-07-05T08:43:49,42.805,6.029,CST-1368DR,5418,7538,14928,0.180,551
2021-07-05T08:46:51,42.805,6.029,CST-1368DR,5418,7537,14926,0.181,551
2021-07-05T08:49:52,42.805,6.029,CST-1368DR,5418,7539,14930,0.180,551
2021-07-05T08:52:54,42.805,6.029,CST-1368DR,5418,7539,14931,0.179,551
2021-07-05T08:55:56,42.805,6.029,CST-1368DR,5418,7538,14928,0.180,551
2021-07-05T08:58:57,42.805,6.029,CST-1368DR,5418,7538,14929,0.180,551
2021-07-05T09:01:59,42.805,6.029,CST-1368DR,5418,7539,14930,0.180,551
2021-07-05T09:05:00,42.805,6.029,CST-1368DR,5418,7538,14928,0.180,551
2021-07-05T09:08:02,42.805,6.029,CST-1368DR,5418,7539,14930,0.180,551
2021-07-05T09:11:04,42.805,6.029,CST-1368DR,5418,7537,14926,0.181,551
2021-07-05T09:14:05,42.805,6.029,CST-1368DR,5418,7537,14927,0.180,551
2021-07-05T09:17:07,42.805,6.029,CST-1368DR,5418,7538,14929,0.180,551
2021-07-05T09:20:08,42.805,6.029,CST-1368DR,5418,7537,14926,0.181,551
2021-07-05T09:23:10,42.805,6.029,CST-1368DR,5418,7537,14927,0.180,551
2021-07-05T09:26:11,42.805,6.029,CST-1368DR,5418,7537,14927,0.180,551
2021-07-05T09:29:13,42.805,6.029,CST-1368DR,5418,7536,14924,0.181,551
2021-07-05T09:32:15,42.805,6.029,CST-1368DR,5418,7539,14930,0.180,551
2021-07-05T09:35:16,42.805,6.029,CST-1368DR,5418,7538,14929,0.180,551
2021-07-05T09:38:18,42.805,6.029,CST-1368DR,5418,7538,14929,0.180,551
2021-07-05T09:41:19,42.805,6.029,CST-1368DR,5418,7539,14930,0.180,551
2021-07-05T09:44:21,42.805,6.029,CST-1368DR,5418,7538,14928,0.180,551
2021-07-05T09:47:22,42.805,6.029,CST-1368DR,5418,7537,14927,0.180,551
2021-07-05T09:50:24,42.805,6.029,CST-1368DR,5418,7538,14928,0.180,551
2021-07-05T09:53:26,42.805,6.029,CST-1368DR,5418,7537,14926,0.181,551
2021-07-05T09:56:27,42.805,6.029,CST-1368DR,5418,7537,14926,0.181,551
2021-07-05T09:59:29,42.805,6.029,CST-1368DR,5418,7537,14927,0.180,551
2021-07-05T10:02:30,42.805,6.029,CST-1368DR,5418,7537,14926,0.181,551
2021-07-05T10:05:32,42.805,6.029,CST-1368DR,5418,7538,14928,0.180,551
2021-07-05T10:08:34,42.805,6.029,CST-1368DR,5418,7537,14927,0.180,551
2021-07-05T10:11:35,42.805,6.029,CST-1368DR,5418,7538,14929,0.180,551
2021-07-05T10:14:37,42.805,6.029,CST-1368DR,5418,7538,14928,0.180,551
2021-07-05T10:17:38,42.805,6.029,CST-1368DR,5418,7537,14927,0.180,551
2021-07-05T10:20:40,42.805,6.029,CST-1368DR,5418,7537,14927,0.180,551
2021-07-05T10:23:41,42.805,6.029,CST-1368DR,5418,7536,14925,0.181,551
2021-07-05T10:26:43,42.805,6.029,CST-1368DR,5418,7537,14926,0.181,551
2021-07-05T10:29:45,42.805,6.029,CST-1368DR,5418,7538,14928,0.180,551
2021-07-05T10:32:46,42.805,6.029,CST-1368DR,5418,7537,14926,0.181,551
2021-07-05T10:35:48,42.805,6.029,CST-1368DR,5418,7537,14927,0.180,551
2021-07-05T10:38:49,42.805,6.029,CST-1368DR,5418,7539,14930,0.180,551
2021-07-05T10:41:51,42.805,6.029,CST-1368DR,5418,7538,14928,0.180,551
2021-07-05T10:44:53,42.805,6.029,CST-1368DR,5418,7537,14926,0.181,551
2021-07-05T10:47:54,42.805,6.029,CST-1368DR,5418,7536,14925,0.181,551
2021-07-05T10:50:56,42.805,6.029,CST-1368DR,5418,7531,14914,0.184,551
2021-07-05T10:53:57,42.805,6.029,CST-1368DR,5418,7537,14927,0.180,550
2021-07-05T10:56:59,42.805,6.029,CST-1368DR,5418,7537,14927,0.180,551
2021-07-05T11:00:00,42.805,6.029,CST-1368DR,5418,7537,14927,0.180,551
2021-07-05T11:03:02,42.805,6.029,CST-1368DR,5418,7538,14929,0.180,551
2021-07-05T11:06:04,42.805,6.029,CST-1368DR,5418,7538,14929,0.180,551
2021-07-05T11:09:05,42.805,6.029,CST-1368DR,5418,7538,14929,0.180,551
2021-07-05T11:12:07,42.805,6.029,CST-1368DR,5418,7538,14928,0.180,551
2021-07-05T11:15:08,42.805,6.029,CST-1368DR,5418,7537,14927,0.180,551
2021-07-05T11:18:10,42.805,6.029,CST-1368DR,5418,7538,14928,0.180,551
2021-07-05T11:21:11,42.805,6.029,CST-1368DR,5418,7538,14928,0.180,551
2021-07-05T11:24:13,42.805,6.029,CST-1368DR,5418,7535,14922,0.182,551
2021-07-05T11:27:15,42.805,6.029,CST-1368DR,5418,7538,14928,0.180,551
2021-07-05T11:30:16,42.805,6.029,CST-1368DR,5418,7536,14924,0.181,551
2021-07-05T11:33:18,42.805,6.029,CST-1368DR,5418,7535,14923,0.182,551
2021-07-05T11:36:19,42.805,6.029,CST-1368DR,5418,7536,14925,0.181,551
2021-07-05T11:39:21,42.805,6.029,CST-1368DR,5418,7538,14928,0.180,551
2021-07-05T11:42:23,42.805,6.029,CST-1368DR,5418,7536,14925,0.181,551
2021-07-05T11:45:24,42.805,6.029,CST-1368DR,5418,7537,14926,0.181,551
2021-07-05T11:48:26,42.805,6.029,CST-1368DR,5418,7536,14925,0.181,551
2021-07-05T11:51:27,42.805,6.029,CST-1368DR,5418,7536,14924,0.181,551
2021-07-05T11:54:29,42.805,6.029,CST-1368DR,5418,7536,14925,0.181,551
2021-07-05T11:57:30,42.805,6.029,CST-1368DR,5418,7536,14925,0.181,551
2021-07-05T12:00:32,42.805,6.029,CST-1368DR,5418,7537,14926,0.181,551
2021-07-05T12:03:34,42.805,6.029,CST-1368DR,5418,7537,14926,0.181,551
2021-07-05T12:06:35,42.805,6.029,CST-1368DR,5418,7537,14926,0.181,551
2021-07-05T12:09:37,42.805,6.029,CST-1368DR,5418,7534,14920,0.182,551
2021-07-05T12:12:38,42.805,6.029,CST-1368DR,5418,7536,14925,0.181,551
2021-07-05T12:15:40,42.805,6.029,CST-1368DR,5418,7534,14921,0.182,551
2021-07-05T12:18:42,42.805,6.029,CST-1368DR,5418,7537,14926,0.181,551
2021-07-05T12:21:43,42.805,6.029,CST-1368DR,5418,7535,14922,0.182,551
2021-07-05T12:24:45,42.805,6.029,CST-1368DR,5418,7536,14925,0.181,551
2021-07-05T12:27:46,42.805,6.029,CST-1368DR,5418,7537,14927,0.180,551
2021-07-05T12:30:48,42.805,6.029,CST-1368DR,5418,7536,14925,0.181,551
2021-07-05T12:33:49,42.805,6.029,CST-1368DR,5418,7537,14926,0.181,551
2021-07-05T12:36:51,42.805,6.029,CST-1368DR,5418,7537,14926,0.181,551
2021-07-05T12:39:53,42.805,6.029,CST-1368DR,5418,7537,14926,0.181,551
2021-07-05T12:42:54,42.805,6.029,CST-1368DR,5418,7536,14925,0.181,551
2021-07-05T12:45:56,42.805,6.029,CST-1368DR,5418,7536,14924,0.181,551
2021-07-05T12:48:57,42.805,6.029,CST-1368DR,5418,7536,14925,0.181,551
2021-07-05T12:51:59,42.805,6.029,CST-1368DR,5418,7536,14925,0.181,551
2021-07-05T12:55:00,42.805,6.029,CST-1368DR,5418,7536,14925,0.181,551
2021-07-05T12:58:02,42.805,6.029,CST-1368DR,5418,7535,14922,0.182,551
2021-07-05T13:01:04,42.805,6.029,CST-1368DR,5418,7536,14924,0.181,551
2021-07-05T13:04:05,42.805,6.029,CST-1368DR,5418,7536,14924,0.181,551
2021-07-05T13:07:07,42.805,6.029,CST-1368DR,5418,7537,14927,0.180,551
2021-07-05T13:10:08,42.805,6.029,CST-1368DR,5418,7536,14924,0.181,551
2021-07-05T13:13:10,42.805,6.029,CST-1368DR,5418,7536,14924,0.181,551
2021-07-05T13:16:12,42.805,6.029,CST-1368DR,5418,7537,14926,0.181,551
2021-07-05T13:19:13,42.805,6.029,CST-1368DR,5418,7535,14922,0.182,551
2021-07-05T13:22:15,42.805,6.029,CST-1368DR,5418,7537,14926,0.181,551
2021-07-05T13:25:16,42.805,6.029,CST-1368DR,5418,7537,14926,0.181,551
2021-07-05T13:28:18,42.805,6.029,CST-1368DR,5418,7537,14927,0.180,551
2021-07-05T13:31:19,42.805,6.029,CST-1368DR,5418,7536,14925,0.181,550
2021-07-05T13:34:21,42.805,6.029,CST-1368DR,5418,7537,14926,0.181,551
2021-07-05T13:37:23,42.805,6.029,CST-1368DR,5418,7537,14926,0.181,551
2021-07-05T13:40:24,42.805,6.029,CST-1368DR,5418,7537,14926,0.181,551
2021-07-05T13:43:26,42.805,6.029,CST-1368DR,5418,7537,14926,0.181,551
2021-07-05T13:46:27,42.805,6.029,CST-1368DR,5418,7536,14924,0.181,551
2021-07-05T13:49:29,42.805,6.029,CST-1368DR,5418,7536,14925,0.181,551
2021-07-05T13:52:30,42.805,6.029,CST-1368DR,5418,7536,14925,0.181,551
2021-07-05T13:55:32,42.805,6.029,CST-1368DR,5418,7537,14926,0.181,551
2021-07-05T13:58:34,42.805,6.029,CST-1368DR,5418,7536,14925,0.181,551
2021-07-05T14:01:35,42.805,6.029,CST-1368DR,5418,7537,14927,0.180,551
2021-07-05T14:04:37,42.805,6.029,CST-1368DR,5418,7537,14926,0.181,551
2021-07-05T14:07:38,42.805,6.029,CST-1368DR,5418,7535,14922,0.182,551
2021-07-05T14:10:40,42.805,6.029,CST-1368DR,5418,7536,14925,0.181,551
2021-07-05T14:13:42,42.805,6.029,CST-1368DR,5418,7537,14927,0.180,551
2021-07-05T14:16:43,42.805,6.029,CST-1368DR,5418,7537,14926,0.181,551
2021-07-05T14:19:45,42.805,6.029,CST-1368DR,5418,7537,14927,0.180,550
2021-07-05T14:22:46,42.805,6.029,CST-1368DR,5418,7535,14923,0.182,551
2021-07-05T14:25:48,42.805,6.029,CST-1368DR,5418,7534,14921,0.182,551
2021-07-05T14:28:49,42.805,6.029,CST-1368DR,5418,7535,14922,0.182,551
2021-07-05T14:31:51,42.805,6.029,CST-1368DR,5418,7536,14925,0.181,551
2021-07-05T14:34:53,42.805,6.029,CST-1368DR,5418,7536,14925,0.181,551
2021-07-05T14:37:54,42.805,6.029,CST-1368DR,5418,7535,14922,0.182,551
2021-07-05T14:40:56,42.805,6.029,CST-1368DR,5418,7535,14922,0.182,551
2021-07-05T14:43:57,42.805,6.029,CST-1368DR,5418,7535,14923,0.182,551
2021-07-05T14:46:59,42.805,6.029,CST-1368DR,5418,7535,14923,0.182,551
2021-07-05T14:50:01,42.805,6.029,CST-1368DR,5418,7535,14922,0.182,551
2021-07-05T14:53:02,42.805,6.029,CST-1368DR,5418,7535,14923,0.182,551
2021-07-05T14:56:04,42.805,6.029,CST-1368DR,5417,7535,14925,0.181,551
2021-07-05T14:59:05,42.805,6.029,CST-1368DR,5418,7536,14925,0.181,551
2021-07-05T15:02:07,42.805,6.029,CST-1368DR,5418,7536,14924,0.181,551
2021-07-05T15:05:08,42.805,6.029,CST-1368DR,5418,7535,14922,0.182,551
2021-07-05T15:08:10,42.805,6.029,CST-1368DR,5418,7535,14923,0.182,551
2021-07-05T15:11:12,42.805,6.029,CST-1368DR,5418,7535,14922,0.182,551
2021-07-05T15:14:13,42.805,6.029,CST-1368DR,5417,7535,14925,0.181,551
2021-07-05T15:17:15,42.805,6.029,CST-1368DR,5417,7535,14926,0.181,551
2021-07-05T15:20:16,42.805,6.029,CST-1368DR,5418,7536,14925,0.181,551
2021-07-05T15:23:18,42.805,6.029,CST-1368DR,5418,7535,14922,0.182,550
2021-07-05T15:26:20,42.805,6.029,CST-1368DR,5418,7536,14924,0.181,551
2021-07-05T15:29:21,42.805,6.029,CST-1368DR,5418,7536,14925,0.181,551
2021-07-05T15:32:23,42.805,6.029,CST-1368DR,5418,7536,14925,0.181,551
2021-07-05T15:35:24,42.805,6.029,CST-1368DR,5418,7536,14925,0.181,551
2021-07-05T15:38:26,42.805,6.029,CST-1368DR,5418,7534,14920,0.182,551
2021-07-05T15:41:27,42.805,6.029,CST-1368DR,5418,7536,14925,0.181,551
2021-07-05T15:44:29,42.805,6.029,CST-1368DR,5418,7536,14925,0.181,551
2021-07-05T15:47:31,42.805,6.029,CST-1368DR,5417,7536,14928,0.180,551
2021-07-05T15:50:32,42.805,6.029,CST-1368DR,5417,7536,14927,0.180,551
2021-07-05T15:53:34,42.805,6.029,CST-1368DR,5418,7536,14925,0.181,551
2021-07-05T15:56:35,42.805,6.029,CST-1368DR,5417,7536,14927,0.180,551
2021-07-05T15:59:37,42.805,6.029,CST-1368DR,5417,7536,14927,0.180,551
2021-07-05T16:02:38,42.805,6.029,CST-1368DR,5417,7536,14926,0.181,551
2021-07-05T16:05:40,42.805,6.029,CST-1368DR,5417,7536,14926,0.181,551
2021-07-05T16:08:42,42.805,6.029,CST-1368DR,5417,7535,14926,0.181,551
2021-07-05T16:11:43,42.805,6.029,CST-1368DR,5417,7535,14925,0.181,551
2021-07-05T16:14:45,42.805,6.029,CST-1368DR,5417,7536,14927,0.180,551
2021-07-05T16:17:46,42.805,6.029,CST-1368DR,5417,7537,14929,0.180,551
2021-07-05T16:20:48,42.805,6.029,CST-1368DR,5417,7535,14926,0.181,551
2021-07-05T16:23:50,42.805,6.029,CST-1368DR,5417,7535,14926,0.181,551
2021-07-05T16:26:51,42.805,6.029,CST-1368DR,5417,7536,14926,0.181,551
2021-07-05T16:29:53,42.805,6.029,CST-1368DR,5417,7536,14926,0.181,551
2021-07-05T16:32:54,42.805,6.029,CST-1368DR,5417,7537,14929,0.180,551
2021-07-05T16:35:56,42.805,6.029,CST-1368DR,5417,7536,14927,0.180,551
2021-07-05T16:38:57,42.805,6.029,CST-1368DR,5417,7535,14926,0.181,551
2021-07-05T16:41:59,42.805,6.029,CST-1368DR,5417,7536,14926,0.181,551
2021-07-05T16:45:01,42.805,6.029,CST-1368DR,5417,7535,14924,0.181,551
2021-07-05T16:48:02,42.805,6.029,CST-1368DR,5417,7535,14925,0.181,551
2021-07-05T16:51:04,42.805,6.029,CST-1368DR,5417,7536,14928,0.180,551